30.06.2024;16:00;6
30.06.2024;15:00;7
30.06.2024;14:00;10
30.06.2024;13:00;11
30.06.2024;12:00;12
30.06.2024;11:00;8
30.06.2024;10:00;12
30.06.2024;09:00;15
30.06.2024;08:00;31
30.06.2024;07:00;32
30.06.2024;06:00;27
30.06.2024;05:00;32
30.06.2024;04:00;43
30.06.2024;03:00;25
30.06.2024;02:00;25
30.06.2024;01:00;23
29.06.2024;24:00;45
29.06.2024;23:00;33
29.06.2024;22:00;41
29.06.2024;21:00;31
29.06.2024;20:00;24
29.06.2024;19:00;28
29.06.2024;18:00;32
29.06.2024;17:00;21
29.06.2024;16:00;23
29.06.2024;15:00;21
29.06.2024;14:00;19
29.06.2024;13:00;15
29.06.2024;12:00;12
29.06.2024;11:00;5
29.06.2024;10:00;2
29.06.2024;09:00;13
29.06.2024;08:00;9
29.06.2024;07:00;22
29.06.2024;06:00;25
29.06.2024;05:00;19
29.06.2024;04:00;23
29.06.2024;03:00;18
29.06.2024;02:00;29
29.06.2024;01:00;23
28.06.2024;24:00;24
28.06.2024;23:00;35
28.06.2024;22:00;31
28.06.2024;21:00;15
28.06.2024;20:00;9
28.06.2024;19:00;11
28.06.2024;18:00;11
28.06.2024;17:00;9
28.06.2024;16:00;12
28.06.2024;15:00;10
28.06.2024;14:00;13
28.06.2024;13:00;8
28.06.2024;12:00;4
28.06.2024;11:00;2
28.06.2024;10:00;2
28.06.2024;09:00;2
28.06.2024;08:00;8
28.06.2024;07:00;15
28.06.2024;06:00;11
28.06.2024;05:00;24
28.06.2024;04:00;26
28.06.2024;03:00;18
28.06.2024;02:00;36
28.06.2024;01:00;30
27.06.2024;24:00;12
27.06.2024;23:00;14
27.06.2024;22:00;24
27.06.2024;21:00;15
27.06.2024;20:00;15
27.06.2024;19:00;11
27.06.2024;18:00;8
27.06.2024;17:00;11
27.06.2024;16:00;12
27.06.2024;15:00;10
27.06.2024;14:00;4
27.06.2024;13:00;3
27.06.2024;12:00;14
27.06.2024;11:00;9
27.06.2024;10:00;7
27.06.2024;09:00;9
27.06.2024;08:00;9
27.06.2024;07:00;10
27.06.2024;06:00;14
27.06.2024;05:00;16
27.06.2024;04:00;15
27.06.2024;03:00;16
27.06.2024;02:00;12
27.06.2024;01:00;8
26.06.2024;24:00;3
26.06.2024;23:00;2
26.06.2024;22:00;12
26.06.2024;21:00;21
26.06.2024;20:00;12
26.06.2024;19:00;12
26.06.2024;18:00;40
26.06.2024;17:00;16
26.06.2024;16:00;10
26.06.2024;15:00;19
26.06.2024;14:00;18
26.06.2024;13:00;19
26.06.2024;12:00;17
26.06.2024;11:00;13
26.06.2024;10:00;10
26.06.2024;09:00;10
26.06.2024;08:00;13
26.06.2024;07:00;16
26.06.2024;06:00;15
26.06.2024;05:00;13
26.06.2024;04:00;21
26.06.2024;03:00;23
26.06.2024;02:00;26
26.06.2024;01:00;23
25.06.2024;24:00;24
25.06.2024;23:00;22
25.06.2024;22:00;23
25.06.2024;21:00;13
25.06.2024;20:00;14
25.06.2024;19:00;14
25.06.2024;18:00;13
25.06.2024;17:00;14
25.06.2024;16:00;16
25.06.2024;15:00;14
25.06.2024;14:00;15
25.06.2024;13:00;14
25.06.2024;12:00;11
25.06.2024;11:00;10
25.06.2024;10:00;8
25.06.2024;09:00;8
25.06.2024;08:00;10
25.06.2024;07:00;11
25.06.2024;06:00;10
25.06.2024;05:00;11
25.06.2024;04:00;10
25.06.2024;03:00;11
25.06.2024;02:00;13
25.06.2024;01:00;16
